Satellite-Ground Cal/Val Region Overpasses Predictions

Prediction of Satellite NPP Overpassing Cal/Val Region: PacNW

Region Location: (Latitude: 10.00, Longitude: 139.50) to (Latitude: 22.70, Longitude: 165.60).

Table of predicted overpasses for the next 14.0 days since TLE Epoch: 2/2/2013
Interval Starting Time Starting Location Ending Time Ending Location
1 02/02/2013 03:53:36 ( 10.05, 140.87) 02/02/2013 03:55:16 ( 15.93, 139.51)
2 02/02/2013 14:43:59 ( 22.69, 163.50) 02/02/2013 14:47:35 ( 10.01, 160.48)
3 02/03/2013 03:34:34 ( 10.00, 145.64) 02/03/2013 03:38:10 ( 22.69, 142.62)
4 02/03/2013 14:28:07 ( 11.59, 165.59) 02/03/2013 14:28:33 ( 10.06, 165.24)
5 02/03/2013 16:06:28 ( 22.68, 142.87) 02/03/2013 16:10:03 ( 10.06, 139.87)
6 02/04/2013 03:15:34 ( 10.02, 150.39) 02/04/2013 03:19:10 ( 22.70, 147.37)
7 02/04/2013 15:47:28 ( 22.67, 147.62) 02/04/2013 15:51:03 ( 10.05, 144.62)
8 02/05/2013 02:56:34 ( 10.03, 155.14) 02/05/2013 03:00:09 ( 22.65, 152.13)
9 02/05/2013 15:28:27 ( 22.65, 152.37) 02/05/2013 15:32:02 ( 10.03, 149.37)
10 02/06/2013 02:37:33 ( 10.04, 159.89) 02/06/2013 02:41:08 ( 22.67, 156.88)
11 02/06/2013 15:09:26 ( 22.70, 157.14) 02/06/2013 15:13:02 ( 10.02, 154.12)
12 02/07/2013 02:18:32 ( 10.00, 164.65) 02/07/2013 02:22:08 ( 22.68, 161.63)
13 02/07/2013 14:50:25 ( 22.68, 161.89) 02/07/2013 14:54:01 ( 10.00, 158.87)
14 02/08/2013 03:41:01 ( 10.02, 144.03) 02/08/2013 03:44:37 ( 22.70, 141.01)
15 02/08/2013 14:32:38 ( 18.38, 165.59) 02/08/2013 14:35:00 ( 10.04, 163.63)
16 02/08/2013 16:12:55 ( 22.66, 141.26) 02/08/2013 16:14:58 ( 15.45, 139.51)
17 02/09/2013 03:22:01 ( 10.04, 148.78) 02/09/2013 03:25:36 ( 22.66, 145.77)
18 02/09/2013 15:53:54 ( 22.64, 146.01) 02/09/2013 15:57:29 ( 10.02, 143.01)
19 02/10/2013 03:03:00 ( 10.06, 153.53) 02/10/2013 03:06:35 ( 22.68, 150.52)
20 02/10/2013 15:34:53 ( 22.68, 150.78) 02/10/2013 15:38:29 ( 10.00, 147.76)
21 02/11/2013 02:43:59 ( 10.02, 158.29) 02/11/2013 02:47:34 ( 22.64, 155.29)
22 02/11/2013 15:15:52 ( 22.66, 155.53) 02/11/2013 15:19:27 ( 10.04, 152.52)
23 02/12/2013 02:24:58 ( 10.04, 163.04) 02/12/2013 02:28:33 ( 22.67, 160.03)
24 02/12/2013 14:56:51 ( 22.70, 160.29) 02/12/2013 15:00:27 ( 10.02, 157.27)
25 02/13/2013 02:08:37 ( 19.41, 165.59) 02/13/2013 02:09:33 ( 22.69, 164.78)
26 02/13/2013 03:47:27 ( 10.01, 142.43) 02/13/2013 03:50:56 ( 22.28, 139.51)
27 02/13/2013 14:37:51 ( 22.67, 165.04) 02/13/2013 14:41:26 ( 10.05, 162.03)
28 02/13/2013 16:19:21 ( 22.67, 139.66) 02/13/2013 16:19:32 ( 22.03, 139.50)
29 02/14/2013 03:28:26 ( 10.04, 147.18) 02/14/2013 03:32:01 ( 22.66, 144.17)
30 02/14/2013 16:00:20 ( 22.64, 144.41) 02/14/2013 16:03:55 ( 10.03, 141.41)
31 02/15/2013 03:09:25 ( 10.00, 151.94) 02/15/2013 03:13:01 ( 22.69, 148.92)
32 02/15/2013 15:41:19 ( 22.68, 149.17) 02/15/2013 15:44:54 ( 10.06, 146.17)


NCC Satellite Cal/Val Overpasses Prediction Service
